XNO151R OMDB-OERK

Flight info

Callsign XNO151R
Flight time 1h 24m
Altitude 40000
Route SENPA N571 ALPOB L768 ULADA T136 OTISU N112 GETOT Q212 MEMGO
Aircraft A359/H-SDE2E3GHIJ3J4J5LM1ORWXY/LB1D1

Departure

Time 2026-05-04 15:22
Airport Dubai International Airport (OMDB)

Arrival

Time 2026-05-04 16:46
Airport King Khalid International Airport (OERK)
Time Latitude Longitude Altitude Speed Heading
2026-05-04 14:48 25.24871 55.36288 27 ft 0 kts 212°
2026-05-04 15:05 25.24884 55.36297 27 ft 4 kts 212°
2026-05-04 15:06 25.24906 55.36312 26 ft 4 kts 212°
2026-05-04 15:06 25.24919 55.36321 25 ft 4 kts 212°
2026-05-04 15:06 25.24937 55.36333 25 ft 3 kts 212°
2026-05-04 15:07 25.24961 55.36374 25 ft 4 kts 292°
2026-05-04 15:07 25.24948 55.36396 26 ft 4 kts 316°
2026-05-04 15:07 25.24930 55.36416 26 ft 3 kts 303°
2026-05-04 15:07 25.24928 55.36418 26 ft 4 kts 302°
2026-05-04 15:11 25.24939 55.36399 27 ft 8 kts 302°
2026-05-04 15:11 25.24975 55.36334 27 ft 11 kts 302°
2026-05-04 15:11 25.25018 55.36258 27 ft 13 kts 301°
2026-05-04 15:12 25.25067 55.36170 27 ft 14 kts 301°
2026-05-04 15:12 25.25121 55.36072 27 ft 16 kts 301°
2026-05-04 15:12 25.25180 55.35967 27 ft 17 kts 301°
2026-05-04 15:12 25.25245 55.35851 27 ft 18 kts 301°
2026-05-04 15:13 25.25314 55.35728 27 ft 19 kts 302°
2026-05-04 15:13 25.25380 55.35613 27 ft 18 kts 302°
2026-05-04 15:13 25.25449 55.35490 27 ft 19 kts 302°
2026-05-04 15:13 25.25523 55.35359 27 ft 20 kts 301°
2026-05-04 15:14 25.25599 55.35224 27 ft 21 kts 302°
2026-05-04 15:14 25.25657 55.35151 27 ft 4 kts 358°
2026-05-04 15:14 25.25706 55.35173 27 ft 12 kts 28°
2026-05-04 15:14 25.25782 55.35222 27 ft 14 kts 30°
2026-05-04 15:15 25.25886 55.35292 27 ft 20 kts 32°
2026-05-04 15:15 25.25996 55.35381 28 ft 19 kts 51°
2026-05-04 15:15 25.25995 55.35522 28 ft 19 kts 104°
2026-05-04 15:16 25.25861 55.35785 28 ft 21 kts 122°
2026-05-04 15:16 25.25781 55.35927 28 ft 22 kts 121°
2026-05-04 15:16 25.25612 55.36227 29 ft 24 kts 122°
2026-05-04 15:17 25.25520 55.36391 28 ft 26 kts 122°
2026-05-04 15:17 25.25321 55.36744 28 ft 28 kts 122°
2026-05-04 15:17 25.25221 55.36922 28 ft 27 kts 122°
2026-05-04 15:18 25.25119 55.37103 29 ft 28 kts 122°
2026-05-04 15:18 25.25015 55.37287 29 ft 29 kts 122°
2026-05-04 15:18 25.24907 55.37480 30 ft 30 kts 122°
2026-05-04 15:19 25.24717 55.37817 29 ft 18 kts 121°
2026-05-04 15:19 25.24675 55.37893 29 ft 9 kts 121°
2026-05-04 15:19 25.24722 55.37993 30 ft 8 kts 34°
2026-05-04 15:20 25.24772 55.38026 31 ft 8 kts 21°
2026-05-04 15:20 25.24810 55.38008 31 ft 6 kts 311°
2026-05-04 15:20 25.24820 55.37994 31 ft 0 kts 304°
2026-05-04 15:21 25.24887 55.37879 32 ft 48 kts 301°
2026-05-04 15:21 25.25181 55.37347 33 ft 112 kts 302°
2026-05-04 15:21 25.26317 55.35351 642 ft 166 kts 299°
2026-05-04 15:22 25.26901 55.34241 1274 ft 170 kts 298°
2026-05-04 15:22 25.27509 55.33019 1541 ft 195 kts 299°
2026-05-04 15:22 25.29037 55.30171 2232 ft 230 kts 302°
2026-05-04 15:23 25.29851 55.28622 2758 ft 239 kts 296°
2026-05-04 15:23 25.30427 55.26828 3167 ft 256 kts 283°
2026-05-04 15:23 25.30662 55.24835 3674 ft 267 kts 277°
2026-05-04 15:23 25.30794 55.22757 4098 ft 274 kts 275°
2026-05-04 15:24 25.30983 55.18528 5489 ft 278 kts 275°
2026-05-04 15:24 25.31155 55.14221 6816 ft 283 kts 275°
2026-05-04 15:25 25.31238 55.12040 7516 ft 284 kts 275°
2026-05-04 15:25 25.31321 55.09855 8215 ft 285 kts 275°
2026-05-04 15:25 25.31404 55.07648 8912 ft 287 kts 275°
2026-05-04 15:26 25.31569 55.03226 10254 ft 293 kts 275°
2026-05-04 15:26 25.31657 55.00911 10576 ft 309 kts 275°
2026-05-04 15:26 25.31843 54.95933 11137 ft 340 kts 275°
2026-05-04 15:27 25.31941 54.93251 11407 ft 354 kts 274°
2026-05-04 15:27 25.32142 54.87664 12115 ft 372 kts 274°
2026-05-04 15:28 25.32346 54.81898 13103 ft 379 kts 274°
2026-05-04 15:28 25.32449 54.78974 13618 ft 382 kts 274°
2026-05-04 15:28 25.32657 54.73071 14567 ft 386 kts 274°
2026-05-04 15:29 25.32761 54.70085 15074 ft 388 kts 274°
2026-05-04 15:30 25.33172 54.58114 17182 ft 394 kts 273°
2026-05-04 15:30 25.34383 54.49079 18641 ft 399 kts 285°
2026-05-04 15:31 25.36020 54.43182 19523 ft 405 kts 287°
2026-05-04 15:31 25.36881 54.40196 19969 ft 407 kts 287°
2026-05-04 15:32 25.39401 54.31143 21381 ft 415 kts 286°
2026-05-04 15:32 25.41046 54.24996 22331 ft 420 kts 285°
2026-05-04 15:33 25.42592 54.18755 23213 ft 426 kts 284°
2026-05-04 15:34 25.44927 54.09185 24560 ft 430 kts 284°
2026-05-04 15:34 25.45702 54.06012 25014 ft 431 kts 284°
2026-05-04 15:34 25.47252 53.99542 25979 ft 434 kts 284°
2026-05-04 15:35 25.48795 53.93079 26920 ft 438 kts 283°
2026-05-04 15:35 25.49579 53.89801 27392 ft 440 kts 283°
2026-05-04 15:35 25.50365 53.86519 27853 ft 442 kts 283°
2026-05-04 15:36 25.51941 53.79931 28759 ft 446 kts 283°
2026-05-04 15:36 25.52742 53.76583 29197 ft 448 kts 283°
2026-05-04 15:36 25.53534 53.73278 29602 ft 450 kts 283°
2026-05-04 15:37 25.54340 53.69917 29946 ft 452 kts 283°
2026-05-04 15:37 25.55148 53.66542 30273 ft 455 kts 283°
2026-05-04 15:37 25.55959 53.63147 30638 ft 455 kts 283°
2026-05-04 15:37 25.56764 53.59770 30940 ft 457 kts 283°
2026-05-04 15:38 25.57580 53.56345 31234 ft 459 kts 283°
2026-05-04 15:38 25.58401 53.52899 31510 ft 461 kts 283°
2026-05-04 15:38 25.59221 53.49449 31789 ft 463 kts 283°
2026-05-04 15:38 25.60033 53.46035 32101 ft 464 kts 283°
2026-05-04 15:39 25.60858 53.42563 32520 ft 462 kts 283°
2026-05-04 15:39 25.61668 53.39155 32923 ft 460 kts 283°
2026-05-04 15:39 25.63290 53.32302 33695 ft 458 kts 283°
2026-05-04 15:40 25.64087 53.28916 34013 ft 457 kts 283°
2026-05-04 15:40 25.64889 53.25502 34330 ft 455 kts 283°
2026-05-04 15:40 25.65689 53.22094 34631 ft 455 kts 282°
2026-05-04 15:40 25.66479 53.18726 34907 ft 455 kts 282°
2026-05-04 15:41 25.67277 53.15324 35281 ft 452 kts 282°
2026-05-04 15:41 25.68069 53.11951 35630 ft 450 kts 282°
2026-05-04 15:41 25.68847 53.08629 35905 ft 449 kts 282°
2026-05-04 15:41 25.69637 53.05256 36174 ft 449 kts 282°
2026-05-04 15:42 25.70571 53.01985 36425 ft 451 kts 288°
2026-05-04 15:42 25.71848 52.98798 36673 ft 453 kts 292°
2026-05-04 15:42 25.73254 52.95661 36902 ft 453 kts 293°
2026-05-04 15:42 25.74214 52.93593 37058 ft 453 kts 293°
2026-05-04 15:43 25.76162 52.89476 37402 ft 453 kts 294°
2026-05-04 15:43 25.77146 52.87415 37572 ft 452 kts 294°
2026-05-04 15:43 25.79097 52.83324 37885 ft 451 kts 294°
2026-05-04 15:43 25.80563 52.80237 38116 ft 451 kts 293°
2026-05-04 15:44 25.81549 52.78155 38274 ft 450 kts 293°
2026-05-04 15:44 25.82991 52.75102 38478 ft 450 kts 293°
2026-05-04 15:44 25.84448 52.72008 38610 ft 450 kts 293°
2026-05-04 15:44 25.85898 52.68923 38752 ft 450 kts 293°
2026-05-04 15:45 25.87333 52.65870 38921 ft 450 kts 293°
2026-05-04 15:45 25.88787 52.62773 39079 ft 449 kts 293°
2026-05-04 15:45 25.90223 52.59714 39231 ft 449 kts 293°
2026-05-04 15:45 25.91647 52.56603 39379 ft 448 kts 292°
2026-05-04 15:46 25.93014 52.53507 39523 ft 448 kts 291°
2026-05-04 15:46 25.94371 52.50386 39669 ft 447 kts 291°
2026-05-04 15:46 25.95709 52.47302 39741 ft 448 kts 291°
2026-05-04 15:47 25.98431 52.41060 39753 ft 447 kts 291°
2026-05-04 15:47 26.01171 52.34874 39767 ft 447 kts 292°
2026-05-04 15:48 26.03935 52.28696 39755 ft 447 kts 292°
2026-05-04 15:48 26.08078 52.19415 39765 ft 447 kts 292°
2026-05-04 15:49 26.10848 52.13189 39755 ft 446 kts 291°
2026-05-04 15:49 26.13585 52.07028 39757 ft 445 kts 291°
2026-05-04 15:50 26.16323 52.00854 39756 ft 446 kts 291°
2026-05-04 15:50 26.19053 51.94745 39763 ft 447 kts 292°
2026-05-04 15:51 26.21200 51.89983 39761 ft 446 kts 291°
2026-05-04 15:51 26.23930 51.83792 39775 ft 446 kts 291°
2026-05-04 15:52 26.26669 51.77567 39761 ft 445 kts 291°
2026-05-04 15:52 26.29415 51.71398 39767 ft 445 kts 291°
2026-05-04 15:53 26.32176 51.65205 39763 ft 445 kts 291°
2026-05-04 15:53 26.34924 51.59050 39766 ft 445 kts 291°
2026-05-04 15:54 26.37624 51.52822 39781 ft 443 kts 287°
2026-05-04 15:54 26.39789 51.46432 39771 ft 441 kts 285°
2026-05-04 15:55 26.41848 51.40008 39768 ft 441 kts 285°
2026-05-04 15:55 26.43894 51.33560 39776 ft 441 kts 285°
2026-05-04 15:56 26.45955 51.27087 39771 ft 441 kts 285°
2026-05-04 15:56 26.48022 51.20626 39770 ft 441 kts 285°
2026-05-04 15:57 26.50075 51.14176 39783 ft 441 kts 285°
2026-05-04 15:57 26.52116 51.07752 39773 ft 440 kts 285°
2026-05-04 15:58 26.54169 51.01282 39773 ft 440 kts 285°
2026-05-04 15:58 26.56201 50.94866 39775 ft 440 kts 284°
2026-05-04 15:59 26.58247 50.88400 39779 ft 440 kts 284°
2026-05-04 15:59 26.60249 50.81946 39777 ft 439 kts 284°
2026-05-04 16:00 26.62229 50.75516 39789 ft 439 kts 284°
2026-05-04 16:00 26.64220 50.69060 39784 ft 438 kts 284°
2026-05-04 16:01 26.66159 50.62639 39780 ft 437 kts 283°
2026-05-04 16:01 26.68055 50.56186 39778 ft 436 kts 283°
2026-05-04 16:02 26.69945 50.49755 39777 ft 436 kts 283°
2026-05-04 16:03 26.72583 50.40033 39791 ft 435 kts 281°
2026-05-04 16:03 26.73916 50.33477 39780 ft 427 kts 272°
2026-05-04 16:04 26.73856 50.26924 39782 ft 421 kts 259°
2026-05-04 16:04 26.72177 50.20683 39779 ft 419 kts 245°
2026-05-04 16:04 26.70809 50.17767 39780 ft 420 kts 242°
2026-05-04 16:05 26.67880 50.12141 39777 ft 420 kts 240°
2026-05-04 16:06 26.63378 50.03715 39774 ft 420 kts 240°
2026-05-04 16:07 26.57439 49.92461 39767 ft 422 kts 241°
2026-05-04 16:08 26.51497 49.81173 39775 ft 424 kts 241°
2026-05-04 16:09 26.46193 49.65852 39761 ft 425 kts 251°
2026-05-04 16:10 26.42542 49.53286 39772 ft 425 kts 251°
2026-05-04 16:11 26.38856 49.40783 39784 ft 425 kts 251°
2026-05-04 16:12 26.33301 49.22034 39784 ft 424 kts 251°
2026-05-04 16:13 26.29847 49.09492 39783 ft 425 kts 258°
2026-05-04 16:14 26.28649 48.96403 39791 ft 426 kts 263°
2026-05-04 16:16 26.27417 48.79942 39797 ft 425 kts 262°
2026-05-04 16:17 26.26129 48.63532 39783 ft 426 kts 262°
2026-05-04 16:18 26.24692 48.50394 39808 ft 427 kts 253°
2026-05-04 16:19 26.18813 48.35262 39817 ft 427 kts 245°
2026-05-04 16:20 26.15024 48.26302 39248 ft 423 kts 245°
2026-05-04 16:20 26.12549 48.20412 38035 ft 422 kts 245°
2026-05-04 16:21 26.07571 48.12305 36046 ft 423 kts 233°
2026-05-04 16:22 26.03823 48.07235 34665 ft 427 kts 232°
2026-05-04 16:22 25.98055 47.99535 32150 ft 437 kts 232°
2026-05-04 16:23 25.92150 47.91614 29415 ft 449 kts 232°
2026-05-04 16:24 25.84237 47.81006 26536 ft 442 kts 232°
2026-05-04 16:25 25.80335 47.75782 25225 ft 438 kts 232°
2026-05-04 16:26 25.72600 47.65444 22529 ft 431 kts 233°
2026-05-04 16:26 25.66936 47.57883 20602 ft 418 kts 233°
2026-05-04 16:27 25.63269 47.52976 19326 ft 411 kts 233°
2026-05-04 16:28 25.58982 47.44962 17465 ft 395 kts 244°
2026-05-04 16:28 25.55225 47.36945 15820 ft 391 kts 243°
2026-05-04 16:29 25.50253 47.26406 13723 ft 382 kts 243°
2026-05-04 16:30 25.47016 47.19477 12004 ft 378 kts 246°
2026-05-04 16:31 25.45199 47.13981 11640 ft 384 kts 251°
2026-05-04 16:31 25.42577 47.05597 11249 ft 384 kts 251°
2026-05-04 16:32 25.39138 46.97661 10647 ft 375 kts 239°
2026-05-04 16:33 25.36540 46.92950 10166 ft 347 kts 239°
2026-05-04 16:33 25.34173 46.88650 9691 ft 302 kts 239°
2026-05-04 16:34 25.32054 46.84792 9203 ft 291 kts 239°
2026-05-04 16:34 25.31001 46.82875 8959 ft 290 kts 239°
2026-05-04 16:35 25.27897 46.77156 8241 ft 289 kts 240°
2026-05-04 16:35 25.25239 46.71253 7695 ft 288 kts 258°
2026-05-04 16:36 25.25135 46.69055 7578 ft 288 kts 276°
2026-05-04 16:36 25.27052 46.65387 7212 ft 283 kts 331°
2026-05-04 16:37 25.30512 46.63764 6928 ft 259 kts 328°
2026-05-04 16:37 25.31708 46.62372 6798 ft 246 kts 296°
2026-05-04 16:37 25.31709 46.58916 6556 ft 223 kts 244°
2026-05-04 16:38 25.30191 46.55924 6333 ft 222 kts 239°
2026-05-04 16:39 25.27339 46.52025 5957 ft 221 kts 200°
2026-05-04 16:39 25.24363 46.52281 5940 ft 220 kts 161°
2026-05-04 16:40 25.21447 46.53358 5941 ft 221 kts 161°
2026-05-04 16:40 25.18486 46.54431 5503 ft 226 kts 161°
2026-05-04 16:41 25.15637 46.55692 5063 ft 218 kts 150°
2026-05-04 16:41 25.11966 46.58042 5001 ft 196 kts 150°
2026-05-04 16:42 25.08440 46.60274 4473 ft 193 kts 150°
2026-05-04 16:43 25.06111 46.61759 3981 ft 193 kts 150°
2026-05-04 16:43 25.03888 46.63173 3518 ft 178 kts 149°
2026-05-04 16:43 25.02826 46.63849 3305 ft 177 kts 149°
2026-05-04 16:44 24.98794 46.66403 2473 ft 153 kts 150°
2026-05-04 16:45 24.96957 46.67578 2086 ft 154 kts 151°
2026-05-04 16:46 24.95159 46.68713 2044 ft 51 kts 150°
2026-05-04 16:46 24.94959 46.68996 2041 ft 21 kts 91°
2026-05-04 16:47 24.94964 46.69179 2043 ft 9 kts 141°
2026-05-04 16:47 24.94818 46.69271 2040 ft 16 kts 152°
2026-05-04 16:48 24.94511 46.69479 2037 ft 13 kts 112°
2026-05-04 16:48 24.94541 46.69574 2036 ft 14 kts 63°
2026-05-04 16:49 24.94644 46.69773 2042 ft 16 kts 57°
2026-05-04 16:49 24.94767 46.69997 2043 ft 18 kts 60°
2026-05-04 16:50 24.94895 46.70246 2045 ft 20 kts 60°
2026-05-04 16:50 24.95035 46.70517 2043 ft 21 kts 60°
2026-05-04 16:51 24.95185 46.70809 2047 ft 23 kts 60°
2026-05-04 16:51 24.95263 46.70956 2046 ft 21 kts 60°
2026-05-04 16:51 24.95424 46.70971 2047 ft 14 kts 328°
2026-05-04 16:52 24.95612 46.70854 2046 ft 17 kts 329°
2026-05-04 16:52 24.95718 46.70785 2044 ft 18 kts 331°
2026-05-04 16:53 24.95918 46.70659 2043 ft 14 kts 329°
2026-05-04 16:53 24.95950 46.70540 2041 ft 1 kts 237°
2026-05-04 16:54 24.95948 46.70536 2041 ft 0 kts 236°
2026-05-04 16:55 24.95937 46.70519 2036 ft 0 kts 235°